This is the latest recevied weather packets stored in our database for station/object N7WSS. If no packets are shown the sender has not sent any weather packets the latest 10 day(s).
| Time | Temp. | Humidity | Pressure | Rain* | Wind** | Luminosity | Snow |
|---|---|---|---|---|---|---|---|
| 1787868277 | 41.11° C | 25% | 1011.4 hPa | 0 mm | - | - | - |
| 1787867972 | 40.56° C | 26% | 1011.5 hPa | 0 mm | - | - | - |
| 1787867668 | 40.56° C | 25% | 1011.7 hPa | 0 mm | - | - | - |
| 1787867367 | 40.56° C | 26% | 1011.7 hPa | 0 mm | - | - | - |
| 1787867064 | 40.56° C | 26% | 1011.7 hPa | 0 mm | - | - | - |
| 1787866759 | 39.44° C | 27% | 1011.7 hPa | 0 mm | - | - | - |
| 1787866458 | 40° C | 26% | 1011.7 hPa | 0 mm | - | - | - |
| 1787866157 | 40.56° C | 27% | 1011.9 hPa | 0 mm | - | - | - |
| 1787865852 | 39.44° C | 27% | 1012 hPa | 0 mm | - | - | - |
| 1787865548 | 40.56° C | 27% | 1012.1 hPa | 0 mm | - | - | - |
| 1787865242 | 40.56° C | 27% | 1012.3 hPa | 0 mm | - | - | - |
| 1787864938 | 41.11° C | 26% | 1012.6 hPa | 0 mm | - | - | - |
| 1787864634 | 41.11° C | 27% | 1012.7 hPa | 0 mm | - | - | - |
| 1787864328 | 40° C | 27% | 1012.8 hPa | 0 mm | - | - | - |
| 1787864028 | 40.56° C | 27% | 1012.9 hPa | 0 mm | - | - | - |
| 1787863727 | 40° C | 27% | 1012.9 hPa | 0 mm | - | - | - |
| 1787863426 | 40.56° C | 27% | 1013 hPa | 0 mm | - | - | - |
| 1787863122 | 40.56° C | 28% | 1013 hPa | 0 mm | - | - | - |
| 1787862817 | 40° C | 28% | 1013.1 hPa | 0 mm | - | - | - |
| 1787862516 | 39.44° C | 28% | 1013.3 hPa | 0 mm | - | - | - |
| 1787862211 | 40° C | 28% | 1013.3 hPa | 0 mm | - | - | - |
| 1787861907 | 39.44° C | 28% | 1013.2 hPa | 0 mm | - | - | - |
| 1787861606 | 39.44° C | 29% | 1013.6 hPa | 0 mm | - | - | - |
| 1787861304 | 39.44° C | 29% | 1013.6 hPa | 0 mm | - | - | - |
| 1787861000 | 39.44° C | 29% | 1013.7 hPa | 0 mm | - | - | - |
* Rain latest hour (hover to see other rain measurements)
** Current wind speed in m/s (hover to see current wind gust speed)